Regional Weather Roundup
Issued by NWS Charleston, SC

Current Version | Previous Version | Graphics & Text | Print | Product List | Glossary On
Versions: 1 2 3 4 5 6 7 8 9 10 11 12 13 14 15 16 17 18 19 20 21 22 23 24 25 26 27 28 29 30 31 32 33 34 35 36 37 38 39 40 41 42 43 44 45 46 47 48 49 50
000
ASUS42 KCHS 271613
RWRCHS

REGIONAL WEATHER ROUNDUP
NATIONAL WEATHER SERVICE CHARLESTON SC
1200 PM EDT TUE SEP 27 2016

NOTE: "FAIR" INDICATES FEW OR NO CLOUDS BELOW 12,000 FEET WITH NO
SIGNIFICANT WEATHER AND/OR OBSTRUCTIONS TO VISIBILITY.

NOT ALL STATIONS ARE QUALITY CONTROLLED. USE DATA WITH CAUTION...
ESPECIALLY DEWPOINT OBSERVATIONS.

SCZ027-030-031-034>040-042>050-271700-
...SOUTHEAST SOUTH CAROLINA...

CITY           SKY/WX    TMP DP  RH WIND       PRES   REMARKS
N CHARLESTON   PTSUNNY   83  71  67 N5        29.94F
WATERFRONT PRK   N/A     78  74  87 N5        29.92F
MOUNT PLEASANT FAIR      81  73  78 CALM      29.94F
JOHNS ISLAND   FAIR      81  73  78 CALM      29.94F
PINOPOLIS        N/A     75  73  94 VRB3      29.90F
MONCKS CORNER  FAIR      79  72  78 N3        29.95F
SUMMERVILLE    FAIR      81  72  74 NE3       29.96F
BEAUFORT MCAS  PTSUNNY   84  72  67 N6        29.95F
BEAUFORT ARPT  FAIR      81  72  74 NE3       29.94F
HILTON HEAD IS NOT AVBL
WALTERBORO     PTSUNNY   84  70  61 NW6       29.96F
ALLENDALE      FAIR      81  70  69 CALM      29.96F

...SOUTHERN MIDLANDS AND PEE DEE...

CITY           SKY/WX    TMP DP  RH WIND       PRES   REMARKS
GEORGETOWN     FAIR      81  70  69 NE6       29.95F
KINGSTREE      FAIR      79  70  73 CALM      29.96F
ORANGEBURG     MOSUNNY  N/A N/A N/A MISG      29.97F
BARNWELL       NOT AVBL
AIKEN          FAIR      79  68  69 S5        30.01F
MANNING        NOT AVBL
COLUMBIA       MOSUNNY   82  68  62 CALM      29.96F
SUMTER         MOSUNNY   80  68  67 N2        29.95F
FLORENCE       MOSUNNY   82  70  66 SE3       29.97F
MYRTLE BEACH   PTSUNNY   82  64  54 E6        29.97F
N MYRTLE BEACH CLOUDY    81  72  74 NE5       29.95F

$$

GAZ063-065-086>088-099>101-113>116-118-119-134>141-150-271700-
...SOUTHEAST GEORGIA...

CITY           SKY/WX    TMP DP  RH WIND       PRES   REMARKS
SAVANNAH ARPT  NOT AVBL
HUNTER AAF     PTSUNNY   82  75  78 NE8       29.93F
FORT STEWART   MOSUNNY   82  70  65 N8        29.93F
STATESBORO     MOSUNNY   82  71  69 CALM      29.97F
SYLVANIA       NOT AVBL
CLAXTON        FAIR      84  72  66 NW5       29.97F HX  90

...CSRA...CENTRAL AND FAR SOUTHEAST GEORGIA...

CITY           SKY/WX    TMP DP  RH WIND       PRES   REMARKS
THOMSON        SUNNY     83  72  70 CALM      30.01F
AUGUSTA-BUSH   MOSUNNY   81  69  67 CALM      29.97F
AUGUSTA-DANIEL MOSUNNY   82  67  60 CALM      29.98F
SWAINSBORO     FAIR      82  68  61 NE5       29.98F
VIDALIA        SUNNY     81  73  78 NE7       29.98F
EASTMAN        FAIR      85  58  39 NE3       30.00F
HAZLEHURST     FAIR      85  73  67 S6        29.97S HX  91
ALMA           SUNNY     83  71  67 VRB6      29.96F
WAYCROSS       MOSUNNY   86  73  65 E3        29.96F HX  93
JESUP          FAIR      82  75  78 NE8       29.96F
BAXLEY         FAIR      82  73  74 N5        29.96F
BRUNSWICK      CLOUDY    82  73  74 N7        29.95F
SAINT SIMONS   CLOUDY    82  70  66 N8        29.94F

$$

SCZ027-028-034-036>038-045-046-048>050-GAZ119-141-271700-
...LAKE AND SUPPLEMENTAL COASTAL OBSERVATIONS...

STATION/POSITION TIME  TEMP    WIND        PRES    WAVE   SWELL
                       AIR SEA DIR/SP/G            HT/PER HT/PER/DIR
                 (UTC) (F)     (DEG/KT/KT) (MB)    (FT/S) (FT/S/D)
WINYAH BAY       NOT AVBL
LAKE MURRAY      1520   80     180/  3/  5 1014.6
ACE BASIN NERRS  1445   78      10/  1     1015.0
FORT PULASKI     1548   78 81   40/  5/  8 1014.5F
SAPELO ISLAND    1500   81     360/  6     1014.0

$$

ANZ835-935-AMZ111-154-330-350-352-354-370-450-454-472-271700-
...C-MAN AND BUOY OBSERVATIONS...

STATION/POSITION TIME  TEMP    WIND        PRES    WAVE   SWELL
                       AIR SEA DIR/SP/G            HT/PER HT/PER/DIR
                 (UTC) (F)     (DEG/KT/KT) (MB)    (FT/S) (FT/S/D)
BUOY 41004       1550   78 82   40/  8/ 10 1013.0F   3/ 8   3/ 80/ 8
BUOY 41008       1550   79 82   30/ 10/ 14 1013.6F   3/ 9   2/110/ 9
FOLLY BEACH CMAN 1600   78      50/  6/  6 1013.9F
CAPERS NEARSHORE 1508   78 81   60/  6/  8 1013.9F
FRIPP NEARSHORE  1508   81 81   40/ 10/ 12 1014.3F


STATION/POSITION TIME  TEMP    WIND        PRES    WAVE   SWELL
                       AIR SEA DIR/SP/G            HT/PER HT/PER/DIR
                 (UTC) (F)     (DEG/KT/KT) (MB)    (FT/S) (FT/S/D)
5E ST. MARYS GA  1501      82                N/A     2/ 8
FRYING PAN BUOY  1550   80 82   10/  8/ 10 1013.6F   3/ 6   3/120/ 6
BUOY 41025       1550   78 84  140/ 14/ 16 1014.5F   4/ 5   2/ 70/ 7
CAPE LOOKOUT NC  1600   79     100/  8/  9 1014.0F
BUOY 41002       1550   80 83  190/ 10/ 14 1013.5F   6/ 7   7/ 90/ 7
BUOY 41010       NOT AVBL
ST AUGUSTINE FL  1600   80 84   30/  7/ 10 1015.0F


$$




USA.gov is the U.S. government's official web portal to all federal, state and local government web resources and services.